• Em Portugal
  • Lista de países
  • Para 7 dias
  • Temperatura da água
  • Mapas de satélite
  • Mapa do tempo
  • Widgets de tempo
  • user-avatar
    Iniciar Sessão

    Previsão horária em Borowno

    Hoje, 21 Abril, Sábado

    Tempo Temperatura Precipitação Vento Pressão Humidade
    00:00 +15°C° 0 mm 2 m/s 721 mmHg 69%
    01:00 +14°C° 0 mm 2 m/s 721 mmHg 67%
    02:00 +14°C° 0 mm 2 m/s 720 mmHg 68%
    03:00 +14°C° 0 mm 2 m/s 720 mmHg 70%
    04:00 +13°C° 0 mm 2 m/s 720 mmHg 71%
    05:00 +14°C° 0 mm 2 m/s 720 mmHg 70%
    06:00 +15°C° 0 mm 2 m/s 720 mmHg 68%
    07:00 +16°C° 0 mm 2 m/s 720 mmHg 64%
    08:00 +18°C° 0 mm 2 m/s 721 mmHg 59%
    09:00 +20°C° 0 mm 2 m/s 721 mmHg 55%
    10:00 +21°C° 0 mm 2 m/s 721 mmHg 50%
    11:00 +22°C° 0 mm 3 m/s 721 mmHg 49%
    12:00 +24°C° 0 mm 3 m/s 721 mmHg 47%
    13:00 +25°C° 0 mm 3 m/s 721 mmHg 45%
    14:00 +25°C° 0,1 mm 3 m/s 720 mmHg 47%
    15:00 +24°C° 0,1 mm 3 m/s 720 mmHg 49%
    16:00 +23°C° 0,1 mm 4 m/s 720 mmHg 51%
    17:00 +20°C° 0,1 mm 3 m/s 720 mmHg 59%
    18:00 +18°C° 0,1 mm 3 m/s 720 mmHg 66%
    19:00 +16°C° 0,1 mm 2 m/s 720 mmHg 73%
    20:00 +15°C° 0 mm 2 m/s 720 mmHg 76%
    21:00 +14°C° 0 mm 2 m/s 720 mmHg 78%
    22:00 +12°C° 0 mm 2 m/s 720 mmHg 80%
    23:00 +12°C° 0 mm 1 m/s 720 mmHg 80%

    Amanhã, 22 Abril, Domingo

    Tempo Temperatura Precipitação Vento Pressão Humidade
    00:00 +11°C° 0 mm 1 m/s 720 mmHg 80%
    01:00 +10°C° 0 mm 1 m/s 720 mmHg 80%
    02:00 +9°C° 0 mm 1 m/s 720 mmHg 79%
    03:00 +9°C° 0 mm 1 m/s 720 mmHg 79%
    04:00 +9°C° 0 mm 1 m/s 720 mmHg 78%
    05:00 +10°C° 0 mm 1 m/s 720 mmHg 74%
    06:00 +11°C° 0 mm 1 m/s 720 mmHg 70%
    07:00 +12°C° 0 mm 1 m/s 720 mmHg 67%
    08:00 +14°C° 0 mm 1 m/s 720 mmHg 61%
    09:00 +16°C° 0 mm 1 m/s 720 mmHg 56%
    10:00 +19°C° 0 mm 1 m/s 720 mmHg 50%
    11:00 +20°C° 0 mm 1 m/s 720 mmHg 47%
    12:00 +21°C° 0 mm 1 m/s 720 mmHg 44%
    13:00 +21°C° 0 mm 1 m/s 720 mmHg 41%
    14:00 +21°C° 0 mm 1 m/s 719 mmHg 42%
    15:00 +21°C° 0 mm 1 m/s 719 mmHg 43%
    16:00 +20°C° 0 mm 2 m/s 719 mmHg 44%
    17:00 +18°C° 0 mm 2 m/s 718 mmHg 51%
    18:00 +16°C° 0 mm 1 m/s 718 mmHg 58%
    19:00 +14°C° 0 mm 1 m/s 718 mmHg 65%
    20:00 +14°C° 0 mm 2 m/s 718 mmHg 67%
    21:00 +13°C° 0 mm 2 m/s 718 mmHg 68%
    22:00 +13°C° 0 mm 2 m/s 718 mmHg 70%
    23:00 +12°C° 0 mm 2 m/s 717 mmHg 71%

    Depois de amanhã, 23 Abril, Segunda-feira

    Tempo Temperatura Precipitação Vento Pressão Humidade
    00:00 +12°C° 0 mm 2 m/s 717 mmHg 73%
    01:00 +12°C° 0 mm 2 m/s 717 mmHg 74%
    02:00 +12°C° 0,1 mm 2 m/s 717 mmHg 77%
    03:00 +12°C° 0,1 mm 2 m/s 717 mmHg 79%
    04:00 +12°C° 0,1 mm 2 m/s 716 mmHg 81%
    05:00 +13°C° 0 mm 2 m/s 716 mmHg 80%
    06:00 +15°C° 0 mm 2 m/s 716 mmHg 78%
    07:00 +16°C° 0 mm 3 m/s 717 mmHg 77%
    08:00 +17°C° 0 mm 3 m/s 717 mmHg 71%
    09:00 +19°C° 0 mm 4 m/s 717 mmHg 66%
    10:00 +21°C° 0 mm 5 m/s 717 mmHg 60%
    11:00 +21°C° 0,1 mm 5 m/s 717 mmHg 58%
    12:00 +22°C° 0,1 mm 5 m/s 716 mmHg 55%
    13:00 +22°C° 0,1 mm 6 m/s 716 mmHg 52%
    14:00 +21°C° 0,8 mm 5 m/s 716 mmHg 62%
    15:00 +19°C° 0,8 mm 5 m/s 716 mmHg 71%
    16:00 +16°C° 0,8 mm 5 m/s 716 mmHg 80%
    17:00 +15°C° 0,4 mm 4 m/s 716 mmHg 83%
    18:00 +14°C° 0,4 mm 4 m/s 716 mmHg 86%
    19:00 +13°C° 0,4 mm 4 m/s 716 mmHg 89%
    20:00 +13°C° 0,1 mm 3 m/s 717 mmHg 90%
    21:00 +12°C° 0,1 mm 3 m/s 717 mmHg 90%
    22:00 +11°C° 0,1 mm 3 m/s 718 mmHg 91%
    23:00 +10°C° 0 mm 3 m/s 718 mmHg 92%

    24 Abril, Terça-feira

    Tempo Temperatura Precipitação Vento Pressão Humidade
    00:00 +9°C° 0 mm 2 m/s 718 mmHg 92%
    01:00 +8°C° 0 mm 2 m/s 718 mmHg 92%
    02:00 +8°C° 0 mm 2 m/s 719 mmHg 92%
    03:00 +7°C° 0 mm 2 m/s 719 mmHg 92%
    04:00 +7°C° 0 mm 2 m/s 719 mmHg 92%
    05:00 +8°C° 0 mm 2 m/s 719 mmHg 88%
    06:00 +9°C° 0 mm 3 m/s 720 mmHg 85%
    07:00 +10°C° 0 mm 3 m/s 720 mmHg 81%
    08:00 +11°C° 0 mm 3 m/s 720 mmHg 74%
    09:00 +12°C° 0 mm 4 m/s 720 mmHg 67%
    10:00 +14°C° 0 mm 4 m/s 720 mmHg 60%
    11:00 +15°C° 0 mm 4 m/s 720 mmHg 56%
    12:00 +17°C° 0 mm 4 m/s 720 mmHg 53%
    13:00 +18°C° 0 mm 4 m/s 720 mmHg 49%
    14:00 +18°C° 0 mm 4 m/s 719 mmHg 49%
    15:00 +18°C° 0 mm 4 m/s 719 mmHg 49%
    16:00 +19°C° 0 mm 4 m/s 719 mmHg 49%
    17:00 +17°C° 0 mm 3 m/s 718 mmHg 55%
    18:00 +15°C° 0 mm 2 m/s 718 mmHg 62%
    19:00 +14°C° 0 mm 2 m/s 718 mmHg 68%
    20:00 +13°C° 0 mm 2 m/s 718 mmHg 70%
    21:00 +12°C° 0 mm 2 m/s 718 mmHg 72%
    22:00 +10°C° 0 mm 2 m/s 718 mmHg 74%
    23:00 +11°C° 0 mm 1 m/s 718 mmHg 76%

    25 Abril, Quarta-feira

    Tempo Temperatura Precipitação Vento Pressão Humidade
    00:00 +10°C° 0 mm 1 m/s 718 mmHg 79%
    01:00 +10°C° 0 mm 1 m/s 718 mmHg 81%
    02:00 +10°C° 0 mm 1 m/s 717 mmHg 82%
    03:00 +9°C° 0 mm 1 m/s 717 mmHg 83%
    04:00 +8°C° 0 mm 2 m/s 717 mmHg 84%
    05:00 +9°C° 0 mm 2 m/s 717 mmHg 80%
    06:00 +12°C° 0 mm 2 m/s 717 mmHg 75%
    07:00 +12°C° 0 mm 3 m/s 717 mmHg 71%
    08:00 +14°C° 0 mm 4 m/s 717 mmHg 65%
    09:00 +17°C° 0 mm 4 m/s 717 mmHg 59%
    10:00 +19°C° 0 mm 5 m/s 717 mmHg 53%
    11:00 +20°C° 0 mm 6 m/s 716 mmHg 51%
    12:00 +21°C° 0 mm 6 m/s 716 mmHg 49%
    13:00 +22°C° 0 mm 7 m/s 715 mmHg 46%
    14:00 +22°C° 0 mm 6 m/s 715 mmHg 48%
    15:00 +22°C° 0 mm 6 m/s 714 mmHg 49%
    16:00 +22°C° 0 mm 5 m/s 714 mmHg 50%
    17:00 +20°C° 0,7 mm 5 m/s 713 mmHg 60%
    18:00 +19°C° 0,7 mm 4 m/s 713 mmHg 70%
    19:00 +17°C° 0,7 mm 3 m/s 713 mmHg 80%
    20:00 +16°C° 0,6 mm 3 m/s 713 mmHg 83%
    21:00 +14°C° 0,6 mm 3 m/s 713 mmHg 87%
    22:00 +13°C° 0,6 mm 3 m/s 713 mmHg 90%
    23:00 +12°C° 0 mm 3 m/s 714 mmHg 91%

    26 Abril, Quinta-feira

    Tempo Temperatura Precipitação Vento Pressão Humidade
    00:00 +12°C° 0 mm 2 m/s 714 mmHg 92%
    01:00 +10°C° 0 mm 2 m/s 714 mmHg 93%
    02:00 +10°C° 0 mm 2 m/s 715 mmHg 93%
    03:00 +9°C° 0 mm 2 m/s 715 mmHg 93%
    04:00 +9°C° 0 mm 2 m/s 715 mmHg 93%
    05:00 +9°C° 0 mm 2 m/s 715 mmHg 90%
    06:00 +10°C° 0 mm 2 m/s 716 mmHg 86%
    07:00 +10°C° 0 mm 2 m/s 716 mmHg 83%
    08:00 +12°C° 0,1 mm 2 m/s 716 mmHg 78%
    09:00 +13°C° 0,1 mm 2 m/s 716 mmHg 73%
    10:00 +14°C° 0,1 mm 2 m/s 716 mmHg 68%
    11:00 +14°C° 0,2 mm 2 m/s 716 mmHg 70%
    12:00 +14°C° 0,2 mm 2 m/s 716 mmHg 72%
    13:00 +14°C° 0,2 mm 2 m/s 716 mmHg 73%
    14:00 +13°C° 0,2 mm 3 m/s 716 mmHg 73%
    15:00 +13°C° 0,2 mm 3 m/s 716 mmHg 73%
    16:00 +13°C° 0,2 mm 3 m/s 716 mmHg 72%
    17:00 +12°C° 0,1 mm 3 m/s 716 mmHg 74%
    18:00 +10°C° 0,1 mm 3 m/s 716 mmHg 75%
    19:00 +9°C° 0,1 mm 3 m/s 716 mmHg 76%
    20:00 +9°C° 0 mm 2 m/s 716 mmHg 77%
    21:00 +8°C° 0 mm 2 m/s 717 mmHg 77%
    22:00 +8°C° 0 mm 2 m/s 717 mmHg 78%
    23:00 +7°C° 0 mm 2 m/s 717 mmHg 77%
    Mostrar mais